Home   Weather   New York   Past weeks

Flag for USA Past Weather in New York, New York, USA — Yesterday and Last 2 Weeks

Now
80 °F

Partly sunny.


Feels Like: 80 °F
Forecast: 69 / 82 °F
Wind: No wind

Location: New York City - Central Park

Current Time: Jun 20, 2018 at 5:03:52 pm

Latest Report: Jun 20, 2018 at 3:51 pm


Visibility: 10 mi

Pressure: 29.81 "Hg

Humidity: 45%

Dew Point: 57 °F

Location of New YorkLocation

Past Weather in New York — Graph

°F

New York Temperature Yesterday

Maximum temperature yesterday: 87 °F (at 1:51 pm)
Minimum temperature yesterday: 75 °F (at 1:58 am)
Average temperature yesterday: 81 °F

High & Low Weather Summary for the Past Weeks

 TemperatureHumidityPressure
High90 °F (Jun 17, 2:51 pm)96% (Jun 19, 1:58 am)30.25 "Hg (Jun 19, 1:58 am)
Low57 °F (Jun 12, 5:51 am)23% (Jun 17, 12:51 pm)29.61 "Hg (Jun 5, 3:51 pm)
Average71 °F59%29.97 "Hg
* Reported Jun 5 3:51 pm — Jun 20 3:51 pm, New York. Weather by CustomWeather, © 2018

Note: Actual official high and low records may vary slightly from our data, if they occured in-between our weather recording intervals... More about our weather records

Advertising

New York Weather History for the Previous 24 Hours

Scroll right to see more
 ConditionsComfort  
Time TempWeatherWind HumidityBarometerVisibility
3:51 pm
Wed, Jun 20
80 °FPartly sunny.No wind45%29.81 "Hg10 mi
2:51 pm81 °FSunny.No wind42%29.82 "Hg10 mi
1:51 pm81 °FPassing clouds.No wind38%29.83 "Hg10 mi
12:51 pm82 °FPassing clouds.No wind37%29.85 "Hg10 mi
11:51 am78 °FPartly sunny.No wind43%29.86 "Hg10 mi
10:51 am76 °FSunny.3 mph45%29.88 "Hg10 mi
9:51 am72 °FSunny.No wind49%29.90 "Hg10 mi
8:51 am71 °FSunny.No wind53%29.90 "Hg10 mi
7:51 am71 °FSunny.3 mph49%29.91 "Hg10 mi
6:51 am71 °FSunny.3 mph45%29.90 "Hg10 mi
5:51 am69 °FSunny.No wind53%29.90 "Hg10 mi
4:51 am71 °FClear.3 mph51%29.89 "Hg10 mi
3:51 am73 °FClear.3 mph50%29.88 "Hg10 mi
2:51 am73 °FClear.3 mph50%29.88 "Hg10 mi
1:51 am74 °FClear.5 mph46%29.88 "Hg10 mi
12:51 am76 °FClear.3 mph43%29.87 "Hg10 mi
11:51 pm
Tue, Jun 19
77 °FClear.No wind45%29.86 "Hg10 mi
10:51 pm78 °FClear.3 mph40%29.87 "Hg10 mi
9:51 pm79 °FClear.3 mph38%29.86 "Hg10 mi
8:51 pm81 °FClear.5 mph34%29.83 "Hg10 mi
7:51 pm83 °FSunny.No wind31%29.81 "Hg10 mi
6:51 pm85 °FSunny.N/A32%29.79 "Hg10 mi
5:51 pm86 °FSunny.5 mph29%29.79 "Hg10 mi
Weather by CustomWeather, © 2018

See weather overview